Location: Newark
(41.8083°N, 72.2500°W)
Time: 07:54:22
(UTC+00:00)

Courier 1B - Visible Passes

Search period start: 03 December 2021 00:00
Search period end: 13 December 2021 00:00
Orbit: 962 x 1209 km, 28.3° (Epoch: 02 December)

Date Brightness Start Highest point End Pass type
(mag) Time Alt. Az. Time Alt. Az. Time Alt. Az.
03 Dec 9.2 00:32:06 10° WSW 00:36:41 24° SSW 00:36:41 24° SSW visible
03 Dec 9.5 21:45:11 10° SW 21:50:48 23° SSE 21:56:12 10° ESE visible
03 Dec 9.0 23:38:13 10° WSW 23:44:04 27° S 23:46:21 22° SSE visible
04 Dec 10.1 01:32:37 10° WSW 01:33:15 12° SW 01:33:15 12° SW visible
04 Dec 9.2 22:44:25 10° SW 22:50:27 27° S 22:56:03 10° SE visible
05 Dec 9.4 00:38:26 10° WSW 00:42:57 22° SSW 00:42:57 22° SSW visible
05 Dec 9.4 21:50:40 10° SW 21:56:48 27° S 22:02:38 10° ESE visible
05 Dec 9.2 23:44:22 10° WSW 23:50:03 25° S 23:52:42 20° SSE visible
06 Dec 9.3 22:50:23 10° WSW 22:56:26 27° S 23:02:12 10° SE visible
07 Dec 9.6 00:45:12 10° WSW 00:49:25 17° SSW 00:49:25 17° SSW visible
07 Dec 9.4 21:56:30 10° WSW 22:02:46 28° S 22:08:46 10° SE visible
07 Dec 9.5 23:50:49 10° WSW 23:55:58 21° SSW 23:59:18 15° SSE visible
08 Dec 9.6 22:56:38 10° WSW 23:02:22 24° SSW 23:07:52 10° SE visible
09 Dec 10.0 00:53:15 10° SW 00:55:20 11° SSW 00:56:11 11° SSW visible
09 Dec 9.6 22:02:35 10° WSW 22:08:43 27° S 22:14:37 10° SE visible
09 Dec 9.9 23:57:53 10° SW 00:01:49 15° SSW 00:05:39 10° S visible
10 Dec 9.9 23:03:16 10° WSW 23:08:15 19° SSW 23:13:04 10° SSE visible
11 Dec 9.9 22:08:57 10° WSW 22:14:38 22° SSW 22:20:07 10° SSE visible
12 Dec 10.2 23:10:46 10° SW 23:14:02 13° SSW 23:17:15 10° S visible
